Regional Weather Roundup
Issued by NWS Sioux Falls, SD

Home | Current Version | Previous Version | Text Only | Print | Product List | Glossary On
Versions: 1 2 3 4 5 6 7 8 9 10 11 12 13 14 15 16 17 18 19 20 21 22 23 24 25 26 27 28 29 30 31 32 33 34 35 36 37 38 39 40 41 42 43 44 45 46 47 48 49 50
000
ASUS43 KFSD 232110
RWRFSD

WEATHER ROUNDUP FOR SE SOUTH DAKOTA/SW MINNESOTA/NW IOWA
NATIONAL WEATHER SERVICE SIOUX FALLS SD
400 PM CDT FRI JUN 23 2017

NOTE: "FAIR" INDICATES FEW OR NO CLOUDS BELOW 12,000 FEET WITH NO
SIGNIFICANT WEATHER AND OR OBSTRUCTIONS TO VISIBILITY.


SDZ038>040-050-052>070-232200-
SOUTHEAST SOUTH DAKOTA

CITY           SKY/WX    TMP DP  RH WIND       PRES   REMARKS
BROOKINGS      CLOUDY    62  48  60 NW17G24   29.99R
CHAMBERLAIN    SUNNY     71  37  29 W21G32    30.06S
HURON          SUNNY     69  39  33 NW25G35   30.01S
MADISON        CLOUDY    63  46  55 NW21G31   30.00F
MITCHELL       MOSUNNY   73  42  32 NW21G28   30.02S
SIOUX FALLS    CLOUDY    66  51  58 NW21G26   29.99S
WINNER         FAIR      75  35  23 NW17G38   30.07F
$$

MNZ071-072-080-081-089-090-097-098-232200-
SOUTHWEST MINNESOTA

CITY           SKY/WX    TMP DP  RH WIND       PRES   REMARKS
FAIRMONT       PTSUNNY   67  53  61 NW20G26   29.91R
JACKSON        CLOUDY    66  50  55 NW20G26   29.94R
LUVERNE        CLOUDY    64  45  48 NW15G24   29.99R
MARSHALL       CLOUDY    65  51  60 NW21G30   29.93R
MONTEVIDEO     CLOUDY    66  52  59 N17G25    29.92S
PIPESTONE      PTSUNNY   64  48  55 NW18G29   29.98R
REDWOOD FALLS  CLOUDY    68  51  54 NW17G25   29.90R
TRACY          CLOUDY    67  51  57 NW21G26   29.94S
WINDOM         SUNNY     68  52  56 NW18G28   29.93R
WORTHINGTON    CLOUDY    65  51  60 NW17G24   29.96S
$$

IAZ001>003-012>014-020>022-031-032-NEZ013-014-SDZ071-232200-
NORTHWEST IOWA

CITY           SKY/WX    TMP DP  RH WIND       PRES   REMARKS
CHEROKEE       PTSUNNY   68  52  55 NW15G21   29.97F
DENISON        MOSUNNY   72  50  46 NW21G31   29.98F
ESTHERVILLE    CLOUDY    66  54  65 NW18G25   29.92S
LE MARS        PTSUNNY   70  50  49 NW14G25   29.99S
ORANGE CITY    PTSUNNY   66  52  59 NW18G25   29.98S
SHELDON        PTSUNNY   68  50  52 NW15G23   29.96S
SIOUX CITY     PTSUNNY   71  50  47 NW21      29.98S
SPENCER        CLOUDY    67  50  54 NW20G31   29.96R
STORM LAKE     MOSUNNY   68  50  52 NW21G29   29.97S
$$

ABBREVIATIONS USED IN REMARKS
   TC - TEMPERATURE IN CELSIUS
  WCI - WIND CHILL INDEX
   HX - HEAT INDEX
  VSB - VISIBILITY





USA.gov is the U.S. government's official web portal to all federal, state and local government web resources and services.